Regional Weather Roundup
Issued by NWS

Home | Current Version | Previous Version | Text Only | Print | Product List | Glossary Off
Versions: 1 2 3 4 5 6 7 8 9 10 11 12 13 14 15 16 17 18 19 20 21 22 23 24 25 26 27 28 29 30 31 32 33 34 35 36 37 38 39 40 41 42 43 44 45 46 47 48 49 50

000
ASUS45 KCYS 160210
RWRWY

WYOMING REGIONAL WEATHER ROUNDUP
NATIONAL WEATHER SERVICE CHEYENNE WY
800 PM MDT SUN OCT 15 2017

NOTE:  "FAIR" INDICATES FEW OR NO CLOUDS BELOW 12,000 FEET
WITH NO SIGNIFICANT WEATHER AND/OR OBSTRUCTIONS TO VISIBILITY.

WYZ001-160300-
YELLOWSTONE NATIONAL PARK

CITY           SKY/WX    TMP DP  RH WIND       PRES   REMARKS
LK YELLOWSTONE   N/A     27  24  89 NW3       30.48F
W YELLOWSTONE  NOT AVBL

$$
WYZ002>013-054>058-071-098>099-160300-
NORTHERN WYOMING

CITY           SKY/WX    TMP DP  RH WIND       PRES   REMARKS
JACKSON        FAIR      31  26  82 N6        30.46R WCI  25
CODY           FAIR      47  26  44 CALM      30.31R
GREYBULL       FAIR      48  24  39 SE5       30.29S
WORLAND        FAIR      45  30  55 SE7       30.29S
SHERIDAN       FAIR      46  29  51 S5        30.24S
BUFFALO        FAIR      42  24  49 SW6       30.28F
GILLETTE       FAIR      37  28  70 S5        30.26F WCI  33
HULETT         FAIR      41  28  60 S9        30.28F
NEWCASTLE      FAIR      45  27  49 E7        30.30S

$$
WYZ014>020-022>026-101>103-160300-
CENTRAL WYOMING

CITY           SKY/WX    TMP DP  RH WIND       PRES   REMARKS
BIG PINEY      FAIR      46  17  31 NW5       30.45S
PINEDALE       FAIR      36  23  60 W5        30.46R WCI  32
DUBOIS         FAIR      37  25  60 W12       30.41S WCI  30
LANDER         FAIR      49  27  42 SW5       30.34R
RIVERTON       FAIR      43  29  57 E7        30.35R
CASPER         FAIR      42  24  49 W10       30.33S
DOUGLAS        FAIR      45  24  43 S7        30.33S

$$
WYZ021-027>030-104>119-160300-
SOUTHERN WYOMING

CITY           SKY/WX    TMP DP  RH WIND       PRES   REMARKS
EVANSTON       FAIR      50  13  22 N6        30.46R
KEMMERER       FAIR      43  14  31 NW7       30.47R
FORT BRIDGER   FAIR      45  12  27 S7        30.49R
ROCK SPRINGS   FAIR      43  10  26 SW8       30.45S
DIXON          FAIR      35  17  48 E6        30.50R WCI  30
RAWLINS        FAIR      43  13  29 SW7       30.45R
SARATOGA       FAIR      41  16  36 CALM      30.48R
LARAMIE        FAIR      41  21  44 E6        30.45R
CHEYENNE       FAIR      43  23  45 W8        30.43R
TORRINGTON     FAIR      47  23  38 SE7       30.33R
PINE BLUFFS    FAIR      43  27  52 MISG      30.41R

$$



USA.gov is the U.S. government's official web portal to all federal, state and local government web resources and services.